EW8409 Weather Reports


Display with metric or nautical units.
time (UTC)temp
F
wind
direction
speed
MPH
gust
MPH
rain 1hr
in
rain 24hr
in
rain mn
in
humidity
%
barometer
mb
20260902030040 70 74 0.0 0.0 0.00 0.14 0.14 96 1014.8
20260902024542 70 74 0.0 0.0 0.00 0.14 0.14 96 1014.8
20260902023039 70 74 0.0 0.0 0.00 0.14 0.14 96 1014.8
20260902021552 70 74 0.0 0.0 0.00 0.14 0.14 96 1014.8
20260902020038 70 74 0.0 0.0 0.00 0.14 0.14 96 1014.9
20260902014540 70 312 0.0 0.0 0.00 0.00 0.14 96 1015.0
20260902013036 70 312 0.0 0.0 0.00 0.14 0.14 96 1014.9
20260902011538 70 312 0.0 0.0 0.00 0.14 0.14 96 1014.8
20260902010052 70 312 0.0 0.0 0.00 0.14 0.14 95 1014.7
20260902004540 70 312 0.0 0.0 0.00 0.15 0.14 95 1014.3
20260902003031 70 312 0.0 0.0 0.00 0.15 0.14 95 1014.0
20260902001531 71 312 0.0 0.0 0.00 0.15 0.14 94 1013.7
20260902000046 71 312 0.0 0.0 0.00 0.15 0.14 93 1013.6
20260901234555 72 312 0.0 0.0 0.00 0.15 0.14 92 1013.7
20260901233030 72 321 0.0 0.0 0.00 0.15 0.14 91 1013.6
20260901231544 73 321 0.0 0.0 0.00 0.15 0.14 90 1013.7
20260901230029 74 321 0.0 0.0 0.00 0.15 0.14 89 1013.9
20260901224532 74 321 0.0 0.0 0.00 0.16 0.14 88 1013.9
20260901223035 75 315 0.0 0.0 0.00 0.16 0.14 87 1013.9
20260901221529 76 315 0.0 0.0 0.00 0.16 0.14 85 1013.8
20260901220031 76 339 0.0 0.0 0.00 0.16 0.14 85 1013.7
20260901214523 77 352 0.0 0.0 0.00 0.16 0.14 83 1013.6
20260901213023 77 340 0.0 0.0 0.00 0.16 0.14 83 1013.6
20260901211526 77 308 0.0 0.0 0.00 0.16 0.14 84 1013.6
20260901210023 77 319 0.0 0.0 0.00 0.16 0.14 84 1013.4
20260901204524 77 18 0.0 0.0 0.00 0.22 0.14 85 1013.5
20260901203025 77 3 0.0 0.0 0.00 0.22 0.14 84 1013.9
20260901201520 77 21 0.0 0.0 0.00 0.22 0.14 82 1013.7
20260901200035 77 83 0.0 0.0 0.00 0.22 0.14 82 1013.6
20260901194522 78 43 0.0 0.0 0.00 0.35 0.14 82 1013.6
20260901193020 78 13 0.0 0.0 0.00 0.35 0.14 81 1013.6
20260901191525 77 63 0.0 0.0 0.00 0.35 0.14 82 1013.6
20260901190024 77 285 0.0 0.0 0.00 0.35 0.14 83 1013.7
20260901184520 77 311 0.0 2.0 0.00 0.59 0.14 83 1013.9
20260901183034 77 31 0.0 1.0 0.00 0.59 0.14 84 1013.7
20260901181515 77 67 0.0 0.0 0.00 0.59 0.14 85 1013.6
20260901180014 76 20 0.0 0.0 0.00 0.59 0.14 86 1013.5
20260901174514 76 25 0.0 1.0 0.00 0.64 0.14 87 1013.4
20260901173011 75 19 0.0 1.0 0.00 0.64 0.14 89 1013.3
20260901171511 75 333 0.0 1.0 0.00 0.64 0.14 91 1013.1
20260901170011 74 238 0.0 0.0 0.00 0.64 0.14 91 1013.0
20260901164510 75 337 0.0 1.0 0.00 0.69 0.14 91 1013.0
20260901163009 77 35 0.0 0.0 0.00 0.69 0.14 87 1012.9
20260901161508 78 30 0.0 0.0 0.00 0.69 0.14 89 1012.8
20260901160003 76 18 0.0 1.0 0.00 0.69 0.14 93 1012.6
20260901154601 75 187 0.0 0.0 0.00 0.77 0.14 96 1012.6
20260901153058 74 160 0.0 0.0 0.00 0.77 0.14 97 1012.7
20260901151556 74 129 0.0 0.0 0.00 0.77 0.14 98 1012.8
20260901150054 73 154 0.0 0.0 0.00 0.77 0.14 98 1012.8
20260901144551 73 27 0.0 0.0 0.00 0.86 0.14 99 1012.7
20260901143051 72 330 0.0 1.0 0.00 0.86 0.14 99 1012.7
20260901141558 72 338 0.0 0.0 0.00 0.86 0.14 99 1012.6
20260901140052 72 167 0.0 0.0 0.00 0.86 0.14 99 1012.7
20260901134547 71 158 0.0 0.0 0.00 1.04 0.14 99 1012.7
20260901133046 71 158 0.0 0.0 0.00 1.04 0.14 99 1012.7
20260901131542 70 158 0.0 0.0 0.00 1.04 0.14 99 1012.7
20260901130040 70 158 0.0 0.0 0.00 1.04 0.14 99 1012.9
20260901124550 69 158 0.0 0.0 0.00 1.08 0.14 99 1013.0
20260901123038 69 158 0.0 0.0 0.00 1.08 0.14 99 1013.0
20260901121546 69 158 0.0 0.0 0.00 1.08 0.14 99 1012.9
20260901120035 68 158 0.0 0.0 0.00 1.08 0.14 99 1012.9
20260901114535 68 158 0.0 0.0 0.01 1.08 0.14 99 1012.8
20260901113035 68 158 0.0 0.0 0.01 1.08 0.14 99 1012.8
20260901111532 68 158 0.0 0.0 0.01 1.08 0.14 99 1012.7
20260901110039 68 158 0.0 0.0 0.01 1.08 0.14 99 1012.5
20260901104530 68 158 0.0 0.0 0.00 1.07 0.13 99 1012.4
20260901103029 68 158 0.0 0.0 0.00 1.07 0.13 99 1012.2
20260901101529 68 158 0.0 0.0 0.03 1.07 0.13 99 1012.3
20260901100029 68 158 0.0 0.0 0.03 1.07 0.13 99 1012.4
20260901094628 68 158 0.0 0.0 0.04 1.07 0.13 99 1012.4
20260901093027 68 158 0.0 0.0 0.08 1.07 0.13 99 1012.4
20260901091537 68 158 0.0 0.0 0.05 1.04 0.10 99 1012.7
20260901090027 68 158 0.0 0.0 0.05 1.04 0.10 99 1012.7
20260901084526 68 160 0.0 0.0 0.04 1.01 0.07 99 1012.7
20260901083025 67 159 0.0 0.0 0.02 0.99 0.05 99 1012.4
20260901081525 67 159 0.0 0.0 0.02 0.99 0.05 99 1012.4
20260901080024 67 159 0.0 0.0 0.02 0.99 0.05 99 1012.5
20260901074521 67 84 0.0 0.0 0.00 0.97 0.03 99 1012.9
20260901073024 67 84 0.0 0.0 0.00 0.97 0.03 99 1013.0
20260901071518 67 84 0.0 0.0 0.00 0.97 0.03 99 1013.0
20260901070025 67 84 0.0 0.0 0.00 0.97 0.03 99 1013.4
20260901064515 67 84 0.0 0.0 0.00 0.97 0.03 99 1013.7
20260901063013 67 84 0.0 0.0 0.01 0.97 0.03 99 1014.0
20260901061512 67 84 0.0 0.0 0.02 0.97 0.03 99 1014.0
20260901060012 67 84 0.0 0.0 0.03 0.97 0.03 99 1014.1
20260901054509 67 84 0.0 0.0 0.03 0.97 0.03 99 1014.2
20260901053011 67 84 0.0 0.0 0.02 0.96 0.02 99 1014.4
20260901051506 67 84 0.0 0.0 0.01 0.95 0.01 99 1014.7
20260901050006 67 84 0.0 0.0 0.00 0.94 0.00 99 1014.7
20260901044506 67 84 0.0 0.0 0.00 0.94 0.00 99 1014.7
20260901043005 67 84 0.0 0.0 0.00 0.94 0.00 98 1014.6
20260901041502 67 84 0.0 0.0 0.00 0.94 0.00 98 1014.7
20260901040104 68 84 0.0 0.0 0.00 0.94 0.00 98 1014.6
20260901034605 68 84 0.0 0.0 0.00 0.94 0.94 98 1014.8
20260901033105 68 84 0.0 0.0 0.00 0.94 0.94 98 1015.1
20260901031554 68 84 0.0 0.0 0.00 0.94 0.94 98 1015.3